铱星星座 128星 (IRIDIUM 128)

导读

IRIDIUM 128是美国铱星系统(Iridium-NEXT星座)中的一颗通信卫星,于2017年6月25日发射入轨。铱星系统属于第二代低轨全球通信星座,该卫星基于泰雷兹阿莱尼亚宇航公司ELiTeBus-1000平台建造,发射重量约860千克,设计服役寿命12.5年。它依托星间链路实现全球覆盖,可为极地、海洋等偏远区域提供稳定的卫星通信服务,是铱星系统星座组网中重要的补网卫星,持续支撑全球天地一体化通信网络运行。

Basic Information
目录编号:
42811
目录名称:
IRIDIUM 128
国际标识:
2017-039J
轨道中心:
EARTH
卫星名称:
铱星星座 128星
卫星全名:
铱星星座 128星 (IRIDIUM 128)
卫星状态:
在轨 (已飞行3369 天)
发射日期:
2017-06-25 UTC
国别 :
美国 (US)
星等 :
--
This satellite is enrolled in the Space Conjunction Data Service (SCDS) and the current flight risk assessment level is: No High Risk
Orbit Information
数据来源 国际轨道数据 AOE轨道数据
星历时间 2026-09-15T19:45:03+0800
11小时前
查看轨道信息
2026-09-13T03:00:00+0800
3天前
查看轨道信息
半长轴 7155.807km 7155.806km
偏心率 0.0002014 0.0002198
轨道倾角 86.402° 86.403°
近地点辐角 93.902° 94.915°
升交点赤经 347.415° 348.542°
平近点角 266.241° 24.035°
近地点 776.228km 776.096km
远地点 779.112km 779.242km
周期 100.403分钟 100.403分钟
每日圈数 14.342169 14.342172
Detailed Information
平衡模式:
三轴稳定
覆盖范围:
全球
运营商:
铱星通信公司
运营商所在国:
美国
制造商(研发单位):
阿莱尼亚宇航公司
制造商所在国:
意大利
使用方式:
暂无
Satellite Introduction
铱星(Iridium)是由共66个运作中的通信卫星组成的卫星通信系统。这个系统原本规划77个通信卫星,所以用原子序数为77的铱元素来命名。铱卫星允许人们使用手持型电子设备进行全球性的语音及数据通讯。该卫星仍在工作。
2D Orbit Map
3D Orbit Map
Orbit Altitude Analysis Chart
Orbit Inclination Analysis Chart
Orbit Comprehensive Analysis Chart
View Comprehensive Chart
Conjunction Data List
Event ID Objects TCA Miss Dist (km) Collision Risk Probability Collision Risk Index (CRI) Action
CDM_260915-013601-736904-281128
2026-09-15T
01:36:59+0000
2.023 km
极远距离
1.05493E-6 低风险 0.35
Miss Distance Evolution Trend with All Objects Subscribe to Flight Safety Assessment
Collision Probability Evolution Trend with All Objects Subscribe to Flight Safety Assessment